Location: Nora Junction
(43.1400°N, 93.0163°W)
Time: 02:22:32
(UTC+00:00)

Cosmos 292 Rocket - Pass Details

Date: 18 November 2025
Orbit: 662 x 683 km, 74.0° (Epoch: 08 December)

Event Time Altitude Azimuth Distance (km) Brightness Sun altitude
Exits shadow 12:12:21 - 337° (NNW) 2,969 6.7 -10.5°
Reaches altitude 10° 12:14:28 10° 336° (NNW) 2,129 5.9 -10.1°
Maximum altitude 12:19:14 73° 252° (WSW) 711 3.7 -9.3°
Drops below altitude 10° 12:23:57 10° 169° (SSE) 2,101 6.7 -8.4°
Sets 12:26:14 0° 167° (SSE) 3,007 7.6 -8.0°
